Weather History for Ann Arbor, MI

Change the Weather History Date:

Monday, January 20, 2014

  Actual Average Record
Temperature  
Mean Temperature 21 °F -  
Max Temperature 30 °F 26 °F 51 °F (2006)
Min Temperature 12 °F 9 °F -8 °F (2009)
Degree Days  
Heating Degree Days 44    
Moisture  
Dew Point 16 °F    
Average Humidity 78    
Maximum Humidity 93    
Minimum Humidity 60    
Precipitation  
Precipitation 0.00 in - - ()
Sea Level Pressure  
Sea Level Pressure 29.83 in    
Wind  
Wind Speed 9 mph (North)    
Max Wind Speed 18 mph    
Max Gust Speed 24 mph    
Visibility 6 miles    
Events Snow    
Averages and records for this station are not official NWS values.
T = Trace of Precipitation, MM = Missing Value Source: NWS Daily Summary

Daily Weather History Graph

Daily Weather History Graph

Search for Another Location

Airport:

Trip Planner

Search our weather history database for the weather conditions in past years. The results will help you decide how hot, cold, wet, or windy it might be!

Date:

Astronomy

Jan. 20, 2014 Rise Set
Actual Time 7:58 AM EST 5:34 PM EST
Civil Twilight 7:27 AM EST 6:04 PM EST
Nautical Twilight 6:53 AM EST 6:39 PM EST
Astronomical Twilight 6:20 AM EST 7:12 PM EST
Moon 10:14 PM EST (1/20) 9:52 AM EST (1/20)
Length of Visible Light 10h 36m
Length of Day
9h 35m
Waning Gibbous, 83% of the Moon is Illuminated
Jan 20
Waning Gibbous
Jan 24
Last Quarter
Jan 30
New
Feb 6
First Quarter
Feb 14
Full

Hourly Weather History & Observations

Time (EST) Temp. Windchill Dew Point Humidity Pressure Visibility Wind Dir Wind Speed Gust Speed Precip Events Conditions
12:53 AM 28.0 °F 19.3 °F 21.9 °F 78% 29.53 in 10.0 mi SSW 9.2 mph - N/A   Overcast
1:26 AM 28.4 °F 19.7 °F 21.2 °F 74% 29.49 in 10.0 mi SW 9.2 mph - N/A   Overcast
1:53 AM 28.9 °F 20.4 °F 23.0 °F 78% 29.52 in 10.0 mi SW 9.2 mph - N/A   Overcast
2:53 AM 28.9 °F 21.9 °F 23.0 °F 78% 29.55 in 10.0 mi WSW 6.9 mph - N/A   Overcast
3:53 AM 28.9 °F 21.9 °F 25.0 °F 85% 29.57 in 5.0 mi SW 6.9 mph - N/A   Overcast
4:08 AM 28.4 °F 22.2 °F 24.8 °F 86% 29.55 in 8.0 mi West 5.8 mph - N/A   Overcast
4:38 AM 28.4 °F 24.6 °F 26.6 °F 93% 29.57 in 7.0 mi WSW 3.5 mph - N/A   Overcast
4:53 AM 28.9 °F 23.9 °F 26.1 °F 89% 29.61 in 7.0 mi WSW 4.6 mph - N/A   Overcast
5:53 AM 30.9 °F 24.3 °F 26.1 °F 82% 29.65 in 8.0 mi WNW 6.9 mph - N/A   Overcast
6:17 AM 30.2 °F 24.3 °F 26.6 °F 86% 29.63 in 6.0 mi NW 5.8 mph - N/A   Haze
6:53 AM 30.9 °F 23.5 °F 27.0 °F 85% 29.68 in 6.0 mi NNW 8.1 mph - N/A   Overcast
7:17 AM 28.4 °F 15.8 °F 24.8 °F 86% 29.67 in 4.0 mi North 18.4 mph 23.0 mph N/A   Overcast
7:28 AM 26.6 °F 15.7 °F 23.0 °F 86% 29.69 in 4.0 mi North 12.7 mph - N/A   Overcast
7:53 AM 25.0 °F 11.7 °F 21.0 °F 85% 29.73 in 10.0 mi North 17.3 mph 24.2 mph N/A   Overcast
8:06 AM 24.8 °F 13.4 °F 19.4 °F 80% 29.71 in 10.0 mi North 12.7 mph 23.0 mph N/A   Overcast
8:53 AM 23.0 °F 13.9 °F 19.0 °F 85% 29.78 in 10.0 mi North 8.1 mph - N/A   Overcast
9:07 AM 23.0 °F 11.7 °F 17.6 °F 80% 29.76 in 10.0 mi North 11.5 mph - N/A   Overcast
9:53 AM 23.0 °F 12.4 °F 17.1 °F 78% 29.83 in 10.0 mi North 10.4 mph - N/A   Overcast
10:14 AM 23.0 °F 13.1 °F 15.8 °F 74% 29.81 in 10.0 mi NNW 9.2 mph - N/A   Overcast
10:53 AM 23.0 °F 12.4 °F 16.0 °F 74% 29.86 in 10.0 mi NNW 10.4 mph - N/A   Overcast
11:53 AM 24.1 °F 14.4 °F 14.0 °F 65% 29.86 in 10.0 mi NNW 9.2 mph - N/A   Overcast
12:53 PM 25.0 °F 14.8 °F 14.0 °F 63% 29.86 in 10.0 mi NNW 10.4 mph - N/A   Overcast
1:53 PM 25.0 °F 16.3 °F 12.9 °F 60% 29.87 in 10.0 mi WNW 8.1 mph - N/A   Overcast
2:53 PM 25.0 °F 17.1 °F 14.0 °F 63% 29.88 in 10.0 mi NW 6.9 mph - N/A   Overcast
3:53 PM 25.0 °F 16.3 °F 12.9 °F 60% 29.90 in 10.0 mi NW 8.1 mph - N/A   Overcast
4:53 PM 24.1 °F 15.2 °F 14.0 °F 65% 29.93 in 9.0 mi NNW 8.1 mph - 0.00 in Snow Light Snow
5:53 PM 23.0 °F 14.7 °F 14.0 °F 68% 29.94 in 9.0 mi North 6.9 mph - 0.00 in   Overcast
6:53 PM 21.9 °F 14.5 °F 15.1 °F 75% 29.97 in 6.0 mi NE 5.8 mph - 0.00 in Snow Light Snow
7:33 PM 21.2 °F 13.6 °F 15.8 °F 80% 29.96 in 5.0 mi NE 5.8 mph - 0.00 in Snow Light Snow
7:53 PM 19.9 °F 11.1 °F 15.1 °F 81% 30.00 in 2.5 mi NE 6.9 mph - 0.00 in Snow Light Snow
8:23 PM 17.6 °F 5.7 °F 12.2 °F 79% 29.98 in 2.0 mi ENE 10.4 mph - 0.00 in Snow Light Snow
8:39 PM 17.6 °F 6.4 °F 12.2 °F 79% 29.99 in 1.5 mi ENE 9.2 mph - 0.00 in Snow Light Snow
8:53 PM 16.0 °F 2.3 °F 10.9 °F 81% 30.03 in 1.5 mi ENE 12.7 mph - 0.00 in Snow Light Snow
9:29 PM 14.0 °F -1.4 °F 8.6 °F 79% 30.01 in 3.0 mi NE 15.0 mph - 0.00 in Snow Light Snow
9:46 PM 14.0 °F 0.5 °F 8.6 °F 79% 30.01 in 2.5 mi NE 11.5 mph - 0.00 in Snow Light Snow
9:53 PM 14.0 °F 1.2 °F 8.1 °F 77% 30.06 in 2.5 mi NE 10.4 mph - 0.00 in Snow Light Snow
10:07 PM 14.0 °F 0.5 °F 8.6 °F 79% 30.01 in 3.0 mi NNE 11.5 mph - 0.00 in Snow Light Snow
10:38 PM 12.2 °F -1.0 °F 8.6 °F 85% 30.01 in 2.5 mi NNE 10.4 mph - 0.00 in Snow Light Snow
10:53 PM 12.9 °F -0.9 °F 7.0 °F 77% 30.06 in 3.0 mi NNE 11.5 mph - 0.00 in Snow Light Snow
11:01 PM 12.2 °F -1.0 °F 6.8 °F 79% 30.02 in 4.0 mi NNE 10.4 mph - 0.00 in Snow Light Snow
11:45 PM 12.2 °F -1.0 °F 5.0 °F 73% 30.03 in 2.5 mi NE 10.4 mph - 0.00 in Snow Light Snow
11:50 PM 12.2 °F -1.8 °F 5.0 °F 73% 30.03 in 3.0 mi NE 11.5 mph - 0.00 in Snow Light Snow
11:53 PM 12.0 °F -2.7 °F 5.0 °F 73% 30.08 in 3.0 mi NE 12.7 mph - 0.00 in Snow Light Snow